Location: Minneapolis
(45.0000°N, 93.0000°W)
Time: 16:59:53
(UTC-05:00)

Envisat - Pass Details

Date: 16 March 2018
Orbit: 764 x 766 km, 98.2° (Epoch: 19 June)

Event Time Altitude Azimuth Distance (km) Brightness Sun altitude
Rises 21:20:04 0° 190° (S) 3,214 6.1 -21.7°
Reaches altitude 10° 21:22:34 10° 200° (SSW) 2,293 5.4 -22.1°
Maximum altitude 21:27:06 33° 264° (W) 1,262 4.6 -22.9°
Drops below altitude 10° 21:31:41 10° 328° (NNW) 2,309 6.2 -23.6°
Sets 21:34:14 0° 338° (NNW) 3,240 6.9 -24.0°
